Home   Weather   Hobart   Past weeks

Flag for Australia Past Weather in Hobart, Tasmania, Australia — Yesterday and Last 2 Weeks

Now
54 °F

Scattered clouds.


Feels Like: 51 °F
Forecast: 41 / 62 °F
Wind: 8 mph from Northwest

Location: Hobart Airport

Current Time: Sep 27, 2016 at 10:20:04 AM

Latest Report: Sep 27, 2016 at 9:30 AM


Visibility: N/A

Pressure: 29.77 "Hg

Humidity: 67%

Dew Point: 43 °F

Location of HobartLocation

Past Weather in Hobart — Graph

°F

Hobart Temperature Yesterday

Maximum temperature yesterday: 59 °F (at 2:00 PM)
Minimum temperature yesterday: 41 °F (at 4:00 AM)
Average temperature yesterday: 50 °F

High & Low Weather Summary for the Past Weeks

 TemperatureHumidityPressure
High64 °F (Sep 17, 1:30 PM)100% (Sep 14, 3:30 AM)30.33 "Hg (Sep 14, 3:30 AM)
Low37 °F (Sep 14, 4:30 AM)31% (Sep 25, 2:00 PM)29.50 "Hg (Sep 25, 5:00 AM)
Average52 °F75%29.87 "Hg
* Reported Sep 12 9:00 AM — Sep 27 9:00 AM, Hobart, Weather by CustomWeather, © 2016

Note: Actual official high and low records may vary slightly from our data, if they occured in-between our weather recording intervals... More about our weather records

Advertising

Hobart Weather History for the Previous 24 Hours

Scroll right to see more
 ConditionsComfort  
Time TempWeatherWind HumidityBarometerVisibility
9:00 AM
Tue, Sep 27
50 °FPassing clouds.9 mph71%29.77 "HgN/A
8:30 AM50 °FPassing clouds.8 mph71%29.77 "HgN/A
8:00 AM46 °FPassing clouds.8 mph82%29.77 "HgN/A
7:30 AM45 °FPassing clouds.8 mph87%29.77 "HgN/A
7:00 AM45 °FPassing clouds.6 mph81%29.77 "HgN/A
6:30 AM43 °FPassing clouds.8 mph87%29.77 "HgN/A
6:00 AM41 °FPassing clouds.7 mph93%29.77 "HgN/A
5:30 AM41 °FPassing clouds.8 mph93%29.74 "HgN/A
5:00 AM41 °FPassing clouds.7 mph93%29.74 "HgN/A
4:30 AM43 °FPassing clouds.7 mph87%29.74 "HgN/A
4:00 AM41 °FPassing clouds.8 mph93%29.74 "HgN/A
3:30 AM41 °FPassing clouds.7 mph93%29.74 "HgN/A
3:00 AM41 °FPassing clouds.6 mph93%29.74 "HgN/A
2:00 AM43 °FPassing clouds.8 mph93%29.77 "HgN/A
1:30 AM43 °FPassing clouds.5 mph93%29.77 "HgN/A
1:00 AM45 °FPassing clouds.6 mph93%29.77 "HgN/A
12:00 AM46 °FPassing clouds.8 mph93%29.77 "HgN/A
11:30 PM
Mon, Sep 26
46 °FPassing clouds.8 mph93%29.80 "HgN/A
11:00 PM48 °FPassing clouds.5 mph87%29.80 "HgN/A
10:00 PM48 °FPassing clouds.5 mph94%29.80 "HgN/A
9:00 PM50 °FSprinkles. Partly cloudy.5 mph88%29.80 "HgN/A
8:52 PM50 °FSprinkles. Partly cloudy.3 mph88%29.80 "HgN/A
8:00 PM52 °FLight rain. Partly cloudy.13 mph77%29.80 "Hg6 mi
7:30 PM50 °FPassing clouds.5 mph76%29.77 "HgN/A
7:00 PM52 °FPassing clouds.3 mph72%29.77 "HgN/A
6:30 PM54 °FPassing clouds.6 mph67%29.77 "HgN/A
6:00 PM55 °FScattered clouds.10 mph63%29.77 "HgN/A
5:30 PM55 °FScattered clouds.9 mph63%29.77 "HgN/A
5:00 PM57 °FPartly sunny.10 mph55%29.74 "HgN/A
4:30 PM57 °FBroken clouds.8 mph55%29.74 "HgN/A
4:00 PM57 °FBroken clouds.9 mph55%29.74 "HgN/A
3:30 PM57 °FPartly sunny.12 mph51%29.74 "HgN/A
3:00 PM59 °FPartly sunny.9 mph48%29.74 "HgN/A
2:00 PM59 °FPartly sunny.12 mph51%29.77 "HgN/A
1:30 PM57 °FScattered clouds.9 mph48%29.77 "HgN/A
1:00 PM57 °FBroken clouds.8 mph51%29.77 "HgN/A
12:30 PM57 °FBroken clouds.5 mph44%29.77 "HgN/A
12:00 PM57 °FBroken clouds.7 mph48%29.80 "HgN/A
11:30 AM57 °FPartly sunny.8 mph48%29.80 "HgN/A
11:00 AM55 °FBroken clouds.8 mph51%29.83 "HgN/A
10:30 AM55 °FPartly sunny.9 mph47%29.83 "HgN/A
10:00 AM54 °FBroken clouds.9 mph51%29.83 "HgN/A
Weather by CustomWeather, © 2016

See weather overviewHow to use our weather pages